GW4449 Weather Reports


time (UTC)temp
F
wind
direction
speed
knots
gust
knots
rain 1hr
in
rain 24hr
in
rain mn
in
humidity
%
barometer
mb
20260507051526 57 9 0.0 3.5 0.00 0.00 0.00 75 1023.1
20260507051008 56 5 0.9 3.5 0.00 0.00 0.00 75 1023.1
20260507050508 57 329 0.9 2.6 0.00 0.00 0.00 75 1023.0
20260507050028 57 360 0.0 2.6 0.00 0.00 0.00 75 1023.1
20260507045509 57 14 0.9 4.3 0.00 0.00 0.00 75 1023.1
20260507045011 57 26 0.0 4.3 0.00 0.00 0.00 75 1023.1
20260507044544 57 352 0.0 4.3 0.00 0.00 0.00 75 1023.1
20260507044009 57 10 0.0 7.0 0.00 0.00 0.00 75 1023.0
20260507043511 57 11 0.9 7.0 0.00 0.00 0.00 75 1023.0
20260507043026 57 5 1.7 4.3 0.00 0.00 0.00 75 1023.0
20260507042507 57 5 0.9 5.2 0.00 0.00 0.00 75 1022.9
20260507042012 57 348 1.7 5.2 0.00 0.00 0.00 74 1022.9
20260507041522 57 352 1.7 5.2 0.00 0.00 0.00 74 1022.9
20260507041007 58 349 1.7 5.2 0.00 0.00 0.00 74 1022.8
20260507040507 58 350 1.7 5.2 0.00 0.00 0.00 74 1022.7
20260507040033 58 344 1.7 5.2 0.00 0.00 0.00 74 1022.6
20260507035507 58 5 0.9 6.1 0.00 0.00 0.00 74 1022.6
20260507035012 58 19 2.6 7.0 0.00 0.00 0.00 74 1022.5
20260507034533 58 15 0.9 7.0 0.00 0.00 0.00 73 1022.5
20260507034010 58 360 1.7 6.1 0.00 0.00 0.00 73 1022.4
20260507033511 59 352 1.7 4.3 0.00 0.00 0.00 73 1022.3
20260507033028 59 352 1.7 6.1 0.00 0.00 0.00 73 1022.3
20260507032511 59 5 1.7 6.1 0.00 0.00 0.00 73 1022.2
20260507032012 59 329 1.7 4.3 0.00 0.00 0.00 73 1022.1
20260507031521 59 337 2.6 5.2 0.00 0.00 0.00 73 1022.1
20260507031007 60 351 1.7 5.2 0.00 0.00 0.00 72 1022.0
20260507030513 60 5 0.9 3.5 0.00 0.00 0.00 72 1021.9
20260507030026 60 20 1.7 5.2 0.00 0.00 0.00 72 1021.9
20260507025508 61 352 1.7 5.2 0.00 0.00 0.00 71 1021.9
20260507025012 61 352 0.9 2.6 0.00 0.00 0.00 71 1021.8
20260507024528 61 19 0.0 3.5 0.00 0.00 0.00 71 1021.7
20260507024009 61 13 1.7 5.2 0.00 0.00 0.00 71 1021.7
20260507023513 61 16 1.7 5.2 0.00 0.00 0.00 71 1021.6
20260507023027 61 347 1.7 4.3 0.00 0.00 0.00 71 1021.7
20260507022513 62 5 1.7 4.3 0.00 0.00 0.00 70 1021.6
20260507022015 62 22 1.7 7.0 0.00 0.00 0.00 70 1021.5
20260507021523 62 9 2.6 7.0 0.00 0.00 0.00 69 1021.6
20260507021009 62 11 1.7 6.1 0.00 0.00 0.00 69 1021.6
20260507020510 63 9 3.5 7.0 0.00 0.00 0.00 68 1021.6
20260507020035 63 5 2.6 7.0 0.00 0.00 0.00 68 1021.6
20260507015508 64 360 2.6 4.3 0.00 0.00 0.00 66 1021.6
20260507015011 64 352 0.9 5.2 0.00 0.00 0.00 66 1021.6
20260507014506 64 34 0.0 6.1 0.00 0.00 0.00 67 1021.6
20260507014004 64 12 3.5 6.1 0.00 0.00 0.00 67 1021.7
20260507013504 64 17 0.9 7.0 0.00 0.00 0.00 68 1021.8
20260507013012 63 18 2.6 9.6 0.00 0.00 0.00 67 1021.8
20260507012505 64 348 1.7 9.6 0.00 0.00 0.00 67 1021.8
20260507012006 64 40 2.6 8.7 0.00 0.00 0.00 66 1021.7
20260507011519 65 352 1.7 8.7 0.00 0.00 0.00 66 1021.7
20260507011007 65 351 2.6 7.8 0.00 0.00 0.00 65 1021.7
20260507010507 66 5 1.7 5.2 0.00 0.00 0.00 64 1021.6
20260507010027 66 340 0.9 7.8 0.00 0.00 0.00 64 1021.5
20260507005509 67 19 2.6 8.7 0.00 0.00 0.00 63 1021.6
20260507005009 67 30 1.7 8.7 0.00 0.00 0.00 62 1021.5
20260507004532 68 63 0.9 7.0 0.00 0.00 0.00 62 1021.5
20260507004008 67 40 0.0 7.0 0.00 0.00 0.00 63 1021.5
20260507003512 68 20 0.9 7.0 0.00 0.00 0.00 62 1021.5
20260507003019 68 63 0.9 7.0 0.00 0.00 0.00 62 1021.4
20260507002505 68 18 2.6 7.0 0.00 0.00 0.00 63 1021.4
20260507002004 68 38 2.6 6.1 0.00 0.00 0.00 62 1021.4
20260507001523 69 9 1.7 8.7 0.00 0.00 0.00 62 1021.4
20260507001007 68 53 2.6 8.7 0.00 0.00 0.00 63 1021.5
20260507000506 69 60 0.9 7.8 0.00 0.00 0.00 64 1021.4
20260507000023 68 10 2.6 7.8 0.00 0.00 0.00 65 1021.4
20260506235507 69 352 2.6 7.8 0.00 0.00 0.00 65 1021.3
20260506235008 69 25 2.6 8.7 0.00 0.00 0.00 64 1021.3
20260506234524 69 345 3.5 8.7 0.00 0.00 0.00 63 1021.2
20260506234010 70 44 0.0 4.3 0.00 0.00 0.00 63 1021.1
20260506233508 68 67 1.7 5.2 0.00 0.00 0.00 64 1021.1
20260506233030 68 22 1.7 5.2 0.00 0.00 0.00 63 1021.0
20260506232509 70 12 0.9 3.5 0.00 0.00 0.00 60 1021.0
20260506232006 69 335 0.0 1.7 0.00 0.00 0.00 60 1021.1
20260506231514 70 185 0.0 1.7 0.00 0.00 0.00 60 1021.0
20260506231006 70 93 0.9 2.6 0.00 0.00 0.00 59 1021.2
20260506230505 70 321 0.0 2.6 0.00 0.00 0.00 60 1021.1
20260506230020 70 352 0.0 4.3 0.00 0.00 0.00 59 1021.3
20260506225507 69 345 0.0 4.3 0.00 0.00 0.00 60 1021.4
20260506225010 69 136 0.0 3.5 0.00 0.00 0.00 61 1021.5
20260506224524 69 126 0.0 3.5 0.00 0.00 0.00 61 1021.6
20260506224010 69 94 0.0 1.7 0.00 0.00 0.00 60 1021.7
20260506223511 70 108 0.0 2.6 0.00 0.00 0.00 61 1021.7
20260506223026 69 192 1.7 2.6 0.00 0.00 0.00 61 1021.8
20260506222513 68 80 0.0 3.5 0.00 0.00 0.00 61 1021.8
20260506222010 69 157 1.7 3.5 0.00 0.00 0.00 61 1021.8
20260506221530 69 110 0.9 2.6 0.00 0.00 0.00 61 1021.8
20260506221009 68 309 0.0 3.5 0.00 0.00 0.00 62 1021.8
20260506220504 68 143 1.7 3.5 0.00 0.00 0.00 61 1021.8
20260506220016 69 300 0.0 2.6 0.00 0.00 0.00 63 1021.8
20260506215507 69 352 0.9 2.6 0.00 0.00 0.00 60 1021.8
20260506215007 68 5 0.0 2.6 0.00 0.00 0.00 63 1021.9
20260506214524 69 15 0.0 2.6 0.00 0.00 0.00 62 1021.8
20260506214012 68 57 0.0 5.2 0.00 0.00 0.00 64 1021.8
20260506213508 68 27 0.9 5.2 0.00 0.00 0.00 64 1021.8
20260506213026 67 307 0.9 3.5 0.00 0.00 0.00 64 1021.8
20260506212509 67 99 0.9 6.1 0.00 0.00 0.00 64 1021.9
20260506212016 67 127 2.6 6.1 0.00 0.00 0.00 65 1022.1
20260506211532 67 155 1.7 7.0 0.00 0.00 0.00 65 1022.1
20260506211008 66 118 1.7 7.0 0.00 0.00 0.00 67 1022.2
20260506210510 66 136 1.7 6.1 0.00 0.00 0.00 66 1022.3
20260506210028 66 90 1.7 6.1 0.00 0.00 0.00 66 1022.3
20260506205511 66 112 2.6 5.2 0.00 0.00 0.00 66 1022.3
20260506205007 66 192 0.9 4.3 0.00 0.00 0.00 64 1022.3
20260506204522 66 176 1.7 5.2 0.00 0.00 0.00 64 1022.3
20260506204008 66 50 0.0 5.2 0.00 0.00 0.00 65 1022.3
20260506203509 66 186 0.9 7.8 0.00 0.00 0.00 64 1022.3
20260506203028 66 200 0.9 7.8 0.00 0.00 0.00 64 1022.2
20260506202509 67 138 1.7 4.3 0.00 0.00 0.00 65 1022.2
20260506202018 66 179 2.6 4.3 0.00 0.00 0.00 64 1022.2
20260506201525 67 209 0.0 6.1 0.00 0.00 0.00 63 1022.1
20260506201010 67 167 2.6 6.1 0.00 0.00 0.00 64 1022.2
20260506200515 66 155 0.9 3.5 0.00 0.00 0.00 66 1022.3
20260506200030 66 138 0.9 2.6 0.00 0.00 0.00 68 1022.4
20260506195510 64 127 0.9 2.6 0.00 0.00 0.00 70 1022.4
20260506195014 64 121 0.9 2.6 0.00 0.00 0.00 71 1022.5
20260506194530 63 209 0.0 1.7 0.00 0.00 0.00 71 1022.5
20260506194009 63 329 0.0 2.6 0.00 0.00 0.00 71 1022.6
20260506193507 63 98 0.0 2.6 0.00 0.00 0.00 72 1022.6
20260506193024 63 109 0.9 2.6 0.00 0.00 0.00 71 1022.7
20260506192506 63 159 0.9 1.7 0.00 0.00 0.00 71 1022.6
20260506192008 63 215 0.0 2.6 0.00 0.00 0.00 71 1022.6
20260506191534 63 273 0.9 3.5 0.00 0.00 0.00 71 1022.6
20260506191007 63 251 0.9 3.5 0.00 0.00 0.00 71 1022.5
20260506190508 63 317 0.0 2.6 0.00 0.00 0.00 72 1022.5
20260506190030 62 105 0.9 2.6 0.00 0.00 0.00 72 1022.5
20260506185506 62 136 0.0 2.6 0.00 0.00 0.00 72 1022.5
20260506185012 62 188 0.9 1.7 0.00 0.00 0.00 73 1022.5
20260506184532 62 55 0.0 2.6 0.00 0.00 0.00 72 1022.5
20260506184011 62 101 0.9 2.6 0.00 0.00 0.00 73 1022.5
20260506183511 62 157 0.9 2.6 0.00 0.00 0.00 72 1022.4
20260506183032 62 100 0.9 6.1 0.00 0.00 0.00 73 1022.4
20260506182506 61 161 1.7 4.3 0.00 0.00 0.00 74 1022.3
20260506182011 61 234 0.9 3.5 0.00 0.00 0.00 74 1022.4
20260506181525 61 219 1.7 3.5 0.00 0.00 0.00 75 1022.5
20260506181010 61 198 0.9 2.6 0.00 0.00 0.00 75 1022.5
20260506180509 61 80 0.0 4.3 0.00 0.00 0.00 76 1022.5
20260506180031 60 211 0.9 4.3 0.00 0.00 0.00 76 1022.5
20260506175510 60 159 2.6 4.3 0.00 0.00 0.00 76 1022.5
20260506175012 59 181 0.9 3.5 0.00 0.00 0.00 78 1022.5
20260506174533 59 184 1.7 3.5 0.00 0.00 0.00 78 1022.6
20260506174009 59 227 0.9 3.5 0.00 0.00 0.00 79 1022.5
20260506173512 59 212 1.7 3.5 0.00 0.00 0.00 79 1022.5
20260506173030 59 217 0.9 3.5 0.00 0.00 0.00 79 1022.4
20260506172509 59 211 0.0 2.6 0.00 0.00 0.00 78 1022.4
20260506172014 59 329 0.0 1.7 0.00 0.00 0.00 80 1022.3
20260506171524 59 145 0.0 1.7 0.00 0.00 0.00 80 1022.2
20260506171008 58 258 0.9 2.6 0.00 0.00 0.00 80 1022.2
20260506170509 58 183 0.9 2.6 0.00 0.00 0.00 80 1022.2
20260506170036 58 161 0.9 1.7 0.00 0.00 0.00 80 1022.2
20260506165504 58 146 0.9 1.7 0.00 0.00 0.00 80 1022.3
20260506165004 58 182 0.9 1.7 0.00 0.00 0.00 81 1022.4
20260506164512 58 94 0.0 1.7 0.00 0.00 0.00 81 1022.5
20260506164009 58 115 0.0 1.7 0.00 0.00 0.00 81 1022.4
20260506163507 58 174 0.0 1.7 0.00 0.00 0.00 1022.3
20260506163018 58 148 0.9 1.7 0.00 0.00 0.00 1022.3
20260506162509 58 140 0.0 0.9 0.00 0.00 0.00 81 1022.4
20260506162011 58 144 0.0 2.6 0.00 0.00 0.00 81 1022.4
20260506161520 58 179 0.0 3.5 0.00 0.00 0.00 81 1022.4
20260506161009 57 150 0.9 4.3 0.00 0.00 0.00 81 1022.2
20260506160510 57 115 1.7 4.3 0.00 0.00 0.00 81 1022.1
20260506160030 58 142 0.9 2.6 0.00 0.00 0.00 81 1022.0
20260506155509 58 101 0.9 3.5 0.00 0.00 0.00 81 1022.0
20260506155014 58 147 0.9 3.5 0.00 0.00 0.00 81 1021.9
20260506154507 57 170 0.0 3.5 0.00 0.00 0.00 82 1021.7
20260506154004 57 120 0.0 2.6 0.00 0.00 0.00 82 1021.8
20260506153503 57 201 0.9 2.6 0.00 0.00 0.00 82 1021.6
20260506153012 57 128 1.7 4.3 0.00 0.00 0.00 82 1021.6
20260506152506 57 142 2.6 4.3 0.00 0.00 0.00 82 1021.5
20260506152008 57 164 1.7 3.5 0.00 0.00 0.00 82 1021.9
20260506151530 57 184 0.0 1.7 0.00 0.00 0.00 83 1022.1
20260506151009 57 167 0.0 1.7 0.00 0.00 0.00 83 1022.2
20260506150507 57 202 0.0 1.7 0.00 0.00 0.00 82 1022.3
20260506150022 57 284 0.0 1.7 0.00 0.00 0.00 82 1022.3
20260506145512 57 308 0.0 0.9 0.00 0.00 0.00 83 1022.3
20260506145009 57 308 0.0 1.7 0.00 0.00 0.00 82 1022.2
20260506144525 57 5 0.0 1.7 0.00 0.00 0.00 82 1022.2
20260506144015 57 38 0.0 1.7 0.00 0.00 0.00 82 1022.1
20260506143514 57 162 0.0 1.7 0.00 0.00 0.00 81 1022.0
20260506143010 57 172 0.0 1.7 0.00 0.00 0.00 81 1022.0
20260506142505 57 174 0.9 1.7 0.00 0.00 0.00 81 1022.0
20260506142006 57 179 0.0 1.7 0.00 0.00 0.00 82 1021.8
20260506141519 57 165 0.9 1.7 0.00 0.00 0.00 82 1021.7
20260506141007 57 104 0.0 1.7 0.00 0.00 0.00 82 1021.5
20260506140508 57 98 0.9 1.7 0.00 0.00 0.00 82 1021.4
20260506140027 57 147 0.0 1.7 0.00 0.00 0.00 82 1021.4
20260506135507 57 183 0.0 1.7 0.00 0.00 0.00 82 1021.5
20260506135010 57 138 0.0 1.7 0.00 0.00 0.00 82 1021.4
20260506134526 57 186 0.0 1.7 0.00 0.00 0.00 82 1021.4
20260506134010 57 196 0.0 1.7 0.00 0.00 0.00 82 1021.4
20260506133513 57 166 0.0 2.6 0.00 0.00 0.00 82 1021.2
20260506133040 57 144 0.9 2.6 0.00 0.00 0.00 82 1021.3
20260506132510 57 157 0.0 1.7 0.00 0.00 0.00 82 1021.3
20260506132015 57 142 0.0 1.7 0.00 0.00 0.00 82 1021.2
20260506131520 57 191 0.0 1.7 0.00 0.00 0.00 83 1021.2
20260506131006 57 174 0.0 1.7 0.00 0.00 0.00 83 1021.1
20260506130507 57 134 0.0 1.7 0.00 0.00 0.00 83 1020.9
20260506130022 57 198 0.0 1.7 0.00 0.00 0.00 83 1020.9
20260506125507 57 170 0.0 1.7 0.00 0.00 0.00 83 1020.9
20260506125009 57 170 0.0 1.7 0.00 0.00 0.00 83 1020.9
20260506124525 57 170 0.0 1.7 0.00 0.00 0.00 83 1020.8
20260506124007 57 170 0.0 1.7 0.00 0.00 0.00 83 1020.8
20260506123510 57 136 0.0 1.7 0.00 0.00 0.00 83 1020.7
20260506123028 57 144 0.0 1.7 0.00 0.00 0.00 82 1020.7
20260506122509 57 151 0.0 1.7 0.00 0.00 0.00 82 1020.7
20260506122012 57 250 0.0 0.9 0.00 0.00 0.00 82 1020.9
20260506121530 57 298 0.0 1.7 0.00 0.00 0.00 82 1020.9
20260506121017 57 298 0.0 1.7 0.00 0.00 0.00 82 1020.8
20260506120511 57 303 0.0 1.7 0.00 0.00 0.00 82 1020.9
20260506120032 57 304 0.0 1.7 0.00 0.00 0.00 82 1020.8
20260506115507 57 309 0.0 1.7 0.00 0.00 0.00 82 1020.8
20260506115009 57 309 0.0 1.7 0.00 0.00 0.00 82 1020.7
20260506114522 57 314 0.0 1.7 0.00 0.00 0.00 82 1020.7
20260506114006 57 329 0.0 1.7 0.00 0.00 0.00 82 1020.6
20260506113508 57 319 0.0 1.7 0.00 0.00 0.00 82 1020.6
20260506113026 57 294 0.0 1.7 0.00 0.00 0.00 82 1020.5
20260506112511 57 305 0.0 1.7 0.00 0.00 0.00 82 1020.5
20260506112013 57 292 0.0 1.7 0.00 0.00 0.00 82 1020.5
20260506111528 57 341 0.9 1.7 0.00 0.00 0.00 82 1020.5
20260506111010 57 347 0.9 1.7 0.00 0.00 0.00 82 1020.4
20260506110516 57 307 0.0 1.7 0.00 0.00 0.00 82 1020.2
20260506110034 58 313 0.0 1.7 0.00 0.00 0.00 82 1020.1
20260506105511 58 319 0.0 1.7 0.00 0.00 0.00 83 1020.1
20260506105007 58 321 0.0 1.7 0.00 0.00 0.00 83 1019.9
20260506104520 58 267 0.0 1.7 0.00 0.00 0.00 83 1019.9
20260506104007 58 267 0.0 1.7 0.00 0.00 0.00 83 1019.8
20260506103508 58 267 0.0 1.7 0.00 0.00 0.00 83 1019.8
20260506103030 58 267 0.0 1.7 0.00 0.00 0.00 83 1019.7
20260506102508 58 267 0.0 1.7 0.00 0.00 0.00 83 1019.7
20260506102011 58 267 0.0 1.7 0.00 0.00 0.00 83 1019.7
20260506101538 58 215 0.0 1.7 0.00 0.00 0.00 83 1019.6
20260506101014 58 215 0.0 1.7 0.00 0.00 0.00 82 1019.5
20260506100510 58 216 0.0 1.7 0.00 0.00 0.00 82 1019.5
20260506100032 58 218 0.9 1.7 0.00 0.00 0.00 82 1019.5
20260506095509 58 229 0.0 1.7 0.00 0.00 0.00 82 1019.4
20260506095009 58 229 0.0 1.7 0.00 0.00 0.00 82 1019.4
20260506094530 58 229 0.0 1.7 0.00 0.00 0.00 82 1019.4
20260506094010 58 242 0.0 1.7 0.00 0.00 0.00 82 1019.3
20260506093507 59 242 0.0 1.7 0.00 0.00 0.00 81 1019.2
20260506093024 59 242 0.0 1.7 0.00 0.00 0.00 81 1019.1
20260506092510 59 329 0.0 1.7 0.00 0.00 0.00 81 1019.2
20260506092011 59 329 0.0 1.7 0.00 0.00 0.00 81 1019.2
20260506091526 59 329 0.0 0.0 0.00 0.00 0.00 81 1019.1
20260506091007 59 329 0.0 1.7 0.00 0.00 0.00 81 1019.1
20260506090511 59 329 0.0 1.7 0.00 0.00 0.00 80 1019.0
20260506090030 59 342 0.0 1.7 0.00 0.00 0.00 80 1019.0
20260506085508 59 342 0.0 0.0 0.00 0.00 0.00 81 1018.9
20260506085010 59 342 0.0 1.7 0.00 0.00 0.00 81 1018.9
20260506084538 59 342 0.0 1.7 0.00 0.00 0.00 81 1018.9
20260506084009 59 342 0.0 0.0 0.00 0.00 0.00 80 1018.9
20260506083517 59 342 0.0 0.0 0.00 0.00 0.00 80 1018.9
20260506083031 59 342 0.0 1.7 0.00 0.00 0.00 79 1018.9
20260506082507 59 342 0.0 1.7 0.00 0.00 0.00 80 1018.9
20260506082013 59 342 0.0 0.0 0.00 0.00 0.00 80 1018.9
20260506081528 59 342 0.0 0.0 0.00 0.00 0.00 79 1018.9
20260506081010 59 342 0.0 0.0 0.00 0.00 0.00 79 1018.9
20260506080504 59 342 0.0 0.0 0.00 0.00 0.00 79 1018.9
20260506073506 60 342 0.0 1.7 0.00 0.00 0.00 78 1018.8
20260506073020 60 341 0.0 1.7 0.00 0.00 0.00 78 1018.7
20260506072512 60 342 0.0 1.7 0.00 0.00 0.00 78 1018.7
20260506072010 59 342 0.0 0.0 0.00 0.00 0.00 78 1018.6
20260506071522 59 342 0.0 0.0 0.00 0.00 0.00 79 1018.7
20260506071010 59 342 0.0 0.9 0.00 0.00 0.00 79 1018.7
20260506070507 59 342 0.0 1.7 0.00 0.00 0.00 79 1018.6
20260506062509 60 99 0.0 0.0 0.00 0.00 0.00 1018.4
20260506062008 60 99 0.0 0.0 0.00 0.00 0.00 1018.4
20260506061523 60 99 0.0 0.0 0.00 0.00 0.00 78 1018.4
20260506061011 60 99 0.0 0.0 0.00 0.00 0.00 78 1018.4
20260506060510 60 99 0.0 0.0 0.00 0.00 0.00 78 1018.4